Princeton, MN

12:57 PM CST on November 15, 2019 (GMT -0600)
Princeton Municipal

Weather History for KPNM - August, 2019

Change the Weather History Date:

Tuesday, August 27, 2019

  Actual Average Record
Temperature  
Mean Temperature 63 °F -  
Max Temperature 71 °F 76 °F 91 °F (2013)
Min Temperature 55 °F 54 °F 48 °F (2003)
Degree Days  
Heating Degree Days 2    
Growing Degree Days 13 (Base 50)    
Moisture  
Dew Point 54 °F    
Average Humidity 77    
Maximum Humidity 100    
Minimum Humidity 49    
Precipitation  
Precipitation 0.00 in - - ()
Sea Level Pressure  
Sea Level Pressure 29.73 in    
Wind  
Wind Speed 8 mph (WSW)    
Max Wind Speed 22 mph    
Max Gust Speed 33 mph    
Visibility 10 miles    
Events Rain , Thunderstorm    
Averages and records for this station are not official NWS values.
T = Trace of Precipitation, MM = Missing Value Source: NWS Daily Summary

Daily Weather History Graph

Daily Weather History Graph

Search for Another Location

Airport or City:

Astronomy

Aug. 27, 2019 Rise Set
Actual Time 6:29 AM CDT 8:01 PM CDT
Civil Twilight 5:58 AM CDT 8:32 PM CDT
Nautical Twilight 5:20 AM CDT 9:10 PM CDT
Astronomical Twilight 4:39 AM CDT 9:50 PM CDT
Moon 2:43 AM CDT (8/27) 6:33 PM CDT (8/27)
Length of Visible Light 14h 34m
Length of Day
13h 32m
Waning Crescent, 11% of the Moon is Illuminated
Aug 27
Waning Crescent
Aug 30
New
Sep 5
First Quarter
Sep 13
Full
Sep 21
Last Quarter

Hourly Weather History & Observations

Time (CDT) Temp. Dew Point Humidity Pressure Visibility Wind Dir Wind Speed Gust Speed Precip Events Conditions
12:17 AM 60.8 °F 57.2 °F 88% 29.71 in 10.0 mi West 5.8 mph - N/A   Clear
12:35 AM 60.8 °F 57.2 °F 88% 29.71 in 10.0 mi WSW 4.6 mph - N/A   Clear
12:36 AM 60.8 °F 57.2 °F 88% 29.71 in 10.0 mi WSW 4.6 mph - N/A   Clear
12:55 AM 60.8 °F 57.2 °F 88% 29.71 in 10.0 mi WSW 4.6 mph - N/A   Clear
1:15 AM 60.8 °F 57.2 °F 88% 29.71 in 10.0 mi WSW 4.6 mph - N/A   Clear
1:38 AM 59.0 °F 55.4 °F 88% 29.71 in 10.0 mi WSW 4.6 mph - N/A   Clear
1:56 AM 59.0 °F 55.4 °F 88% 29.71 in 10.0 mi WSW 4.6 mph - N/A   Clear
2:15 AM 59.0 °F 55.4 °F 88% 29.71 in 10.0 mi WSW 5.8 mph - N/A   Clear
2:16 AM 59.0 °F 55.4 °F 88% 29.71 in 10.0 mi WSW 6.9 mph - N/A   Clear
2:35 AM 57.2 °F 55.4 °F 94% 29.70 in 10.0 mi SW 4.6 mph - N/A   Clear
2:59 AM 57.2 °F 55.4 °F 94% 29.71 in 10.0 mi WSW 3.5 mph - N/A   Clear
3:16 AM 57.2 °F 53.6 °F 88% 29.71 in 10.0 mi WSW 4.6 mph - N/A   Clear
3:40 AM 57.2 °F 53.6 °F 88% 29.71 in 10.0 mi SW 3.5 mph - N/A   Clear
3:55 AM 57.2 °F 53.6 °F 88% 29.70 in 10.0 mi Calm Calm - N/A   Clear
3:56 AM 57.2 °F 53.6 °F 88% 29.70 in 10.0 mi Calm Calm - N/A   Clear
4:19 AM 57.2 °F 53.6 °F 88% 29.70 in 10.0 mi Calm Calm - N/A   Clear
4:37 AM 57.2 °F 53.6 °F 88% 29.70 in 10.0 mi Calm Calm - N/A   Clear
4:55 AM 57.2 °F 53.6 °F 88% 29.70 in 10.0 mi SW 3.5 mph - N/A   Clear
4:56 AM 57.2 °F 53.6 °F 88% 29.70 in 10.0 mi SW 4.6 mph - N/A   Clear
5:15 AM 57.2 °F 55.4 °F 94% 29.70 in 10.0 mi SW 4.6 mph - N/A   Clear
5:35 AM 57.2 °F 53.6 °F 88% 29.70 in 10.0 mi SW 3.5 mph - N/A   Clear
5:58 AM 55.4 °F 55.4 °F 100% 29.69 in 10.0 mi SW 3.5 mph - N/A   Clear
6:16 AM 55.4 °F 53.6 °F 94% 29.69 in 10.0 mi WSW 5.8 mph - N/A   Clear
6:35 AM 57.2 °F 55.4 °F 94% 29.70 in 10.0 mi SW 5.8 mph - N/A   Clear
6:55 AM 57.2 °F 55.4 °F 94% 29.71 in 10.0 mi WSW 4.6 mph - N/A   Clear
7:19 AM 57.2 °F 55.4 °F 94% 29.72 in 10.0 mi WSW 6.9 mph - N/A   Clear
7:37 AM 57.2 °F 55.4 °F 94% 29.72 in 10.0 mi WSW 8.1 mph - N/A   Scattered Clouds
7:55 AM 59.0 °F 55.4 °F 88% 29.72 in 10.0 mi WSW 8.1 mph - N/A   Mostly Cloudy
8:15 AM 59.0 °F 55.4 °F 88% 29.72 in 10.0 mi WSW 10.4 mph 18.4 mph N/A   Scattered Clouds
8:35 AM 60.8 °F 55.4 °F 82% 29.72 in 10.0 mi West 6.9 mph - N/A   Clear
8:40 AM 62.6 °F 55.4 °F 77% 29.72 in 10.0 mi West 11.5 mph - N/A   Clear
8:58 AM 62.6 °F 55.4 °F 77% 29.72 in 10.0 mi WSW 12.7 mph 20.7 mph N/A   Clear
9:16 AM 62.6 °F 55.4 °F 77% 29.73 in 10.0 mi WSW 8.1 mph 17.3 mph N/A   Clear
9:35 AM 62.6 °F 55.4 °F 77% 29.73 in 10.0 mi WSW 10.4 mph 16.1 mph N/A   Clear
9:55 AM 64.4 °F 55.4 °F 73% 29.74 in 10.0 mi WSW 9.2 mph - N/A   Clear
9:56 AM 64.4 °F 55.4 °F 73% 29.74 in 10.0 mi WSW 10.4 mph - N/A   Clear
10:17 AM 64.4 °F 55.4 °F 73% 29.74 in 10.0 mi WSW 8.1 mph - N/A   Clear
10:36 AM 64.4 °F 55.4 °F 73% 29.75 in 10.0 mi West 9.2 mph - N/A   Clear
10:55 AM 64.4 °F 55.4 °F 73% 29.75 in 10.0 mi WSW 10.4 mph - N/A   Clear
10:56 AM 64.4 °F 55.4 °F 73% 29.75 in 10.0 mi WSW 10.4 mph - N/A   Clear
11:15 AM 66.2 °F 55.4 °F 68% 29.74 in 10.0 mi WSW 11.5 mph - N/A   Clear
11:16 AM 66.2 °F 55.4 °F 68% 29.74 in 10.0 mi WSW 10.4 mph - N/A   Clear
11:39 AM 69.8 °F 55.4 °F 60% 29.74 in 10.0 mi WSW 17.3 mph 23.0 mph N/A   Scattered Clouds
11:57 AM 68.0 °F 53.6 °F 60% 29.74 in 10.0 mi West 10.4 mph 21.9 mph N/A   Scattered Clouds
12:15 PM 68.0 °F 53.6 °F 60% 29.73 in 10.0 mi WSW 13.8 mph 18.4 mph N/A   Scattered Clouds
12:16 PM 68.0 °F 53.6 °F 60% 29.73 in 10.0 mi WSW 13.8 mph 18.4 mph N/A   Scattered Clouds
12:35 PM 69.8 °F 51.8 °F 53% 29.73 in 10.0 mi West 16.1 mph 23.0 mph N/A   Scattered Clouds
12:36 PM 69.8 °F 51.8 °F 53% 29.73 in 10.0 mi West 15.0 mph 23.0 mph N/A   Scattered Clouds
12:55 PM 69.8 °F 50.0 °F 49% 29.73 in 10.0 mi WSW 20.7 mph 27.6 mph N/A   Scattered Clouds
1:18 PM 71.6 °F 51.8 °F 50% 29.72 in 10.0 mi WSW 16.1 mph 21.9 mph N/A Thunderstorm Thunderstorm
1:36 PM 71.6 °F 51.8 °F 50% 29.72 in 10.0 mi WSW 13.8 mph 18.4 mph N/A Thunderstorm Scattered Clouds
1:55 PM 57.2 °F 48.2 °F 72% 29.74 in 5.0 mi West 9.2 mph 27.6 mph N/A   Mostly Cloudy
2:15 PM 59.0 °F 53.6 °F 82% 29.75 in 10.0 mi SW 8.1 mph - N/A   Scattered Clouds
2:16 PM 59.0 °F 53.6 °F 82% 29.74 in 10.0 mi SW 8.1 mph - N/A   Clear
2:57 PM 66.2 °F 53.6 °F 64% 29.73 in 10.0 mi WSW 15.0 mph 20.7 mph N/A   Clear
3:15 PM 68.0 °F 53.6 °F 60% 29.72 in 10.0 mi West 13.8 mph 28.8 mph N/A   Scattered Clouds
3:35 PM 66.2 °F 51.8 °F 60% 29.72 in 10.0 mi WSW 21.9 mph 31.1 mph N/A   Scattered Clouds
3:36 PM 68.0 °F 51.8 °F 56% 29.73 in 10.0 mi West 19.6 mph 31.1 mph N/A   Scattered Clouds
3:55 PM 69.8 °F 51.8 °F 53% 29.72 in 10.0 mi WSW 21.9 mph 32.2 mph N/A   Clear
4:18 PM 69.8 °F 51.8 °F 53% 29.72 in 10.0 mi WSW 17.3 mph 28.8 mph N/A   Scattered Clouds
4:36 PM 68.0 °F 53.6 °F 60% 29.72 in 10.0 mi WSW 17.3 mph 21.9 mph N/A   Mostly Cloudy
4:55 PM 68.0 °F 51.8 °F 56% 29.73 in 10.0 mi West 17.3 mph 26.5 mph N/A   Scattered Clouds
4:56 PM 68.0 °F 51.8 °F 56% 29.73 in 10.0 mi WSW 20.7 mph 26.5 mph N/A   Scattered Clouds
5:15 PM 68.0 °F 53.6 °F 60% 29.73 in 10.0 mi WSW 12.7 mph 24.2 mph N/A   Scattered Clouds
5:39 PM 66.2 °F 53.6 °F 64% 29.74 in 10.0 mi WSW 10.4 mph 23.0 mph N/A   Mostly Cloudy
5:57 PM 64.4 °F 53.6 °F 68% 29.74 in 10.0 mi West 13.8 mph 19.6 mph N/A   Mostly Cloudy
6:15 PM 64.4 °F 51.8 °F 64% 29.74 in 10.0 mi WSW 13.8 mph 25.3 mph N/A   Overcast
6:16 PM 64.4 °F 51.8 °F 64% 29.74 in 10.0 mi WSW 13.8 mph 25.3 mph N/A   Overcast
6:35 PM 64.4 °F 51.8 °F 64% 29.75 in 10.0 mi WSW 17.3 mph 23.0 mph N/A   Mostly Cloudy
6:36 PM 64.4 °F 51.8 °F 64% 29.75 in 10.0 mi WSW 17.3 mph 23.0 mph N/A   Mostly Cloudy
6:55 PM 64.4 °F 51.8 °F 64% 29.75 in 10.0 mi WSW 12.7 mph 21.9 mph N/A   Mostly Cloudy
7:00 PM 62.6 °F 51.8 °F 68% 29.75 in 10.0 mi WSW 12.7 mph 21.9 mph N/A   Mostly Cloudy
7:18 PM 64.4 °F 53.6 °F 68% 29.76 in 10.0 mi West 13.8 mph 18.4 mph N/A   Mostly Cloudy
7:36 PM 62.6 °F 53.6 °F 72% 29.76 in 10.0 mi WSW 10.4 mph 17.3 mph N/A   Mostly Cloudy
7:55 PM 62.6 °F 53.6 °F 72% 29.77 in 10.0 mi WSW 10.4 mph - N/A Rain Light Rain
7:56 PM 62.6 °F 53.6 °F 72% 29.77 in 10.0 mi WSW 11.5 mph - N/A Rain Light Rain
8:15 PM 60.8 °F 53.6 °F 77% 29.77 in 10.0 mi WSW 8.1 mph 19.6 mph N/A   Overcast
8:16 PM 60.8 °F 53.6 °F 77% 29.77 in 10.0 mi WSW 10.4 mph 19.6 mph N/A   Overcast
8:39 PM 60.8 °F 55.4 °F 82% 29.78 in 10.0 mi WSW 9.2 mph 17.3 mph N/A   Overcast
8:57 PM 60.8 °F 55.4 °F 82% 29.79 in 10.0 mi West 6.9 mph - N/A Rain Rain
9:15 PM 59.0 °F 55.4 °F 88% 29.78 in 10.0 mi WSW 6.9 mph - N/A Rain Rain
9:35 PM 59.0 °F 55.4 °F 88% 29.79 in 10.0 mi WSW 6.9 mph - N/A   Overcast
9:55 PM 59.0 °F 55.4 °F 88% 29.78 in 10.0 mi WSW 9.2 mph 17.3 mph N/A Rain Light Rain
9:59 PM 59.0 °F 55.4 °F 88% 29.78 in 10.0 mi WSW 6.9 mph - N/A Rain Light Rain
10:17 PM 59.0 °F 55.4 °F 88% 29.78 in 10.0 mi NW 6.9 mph - N/A Rain Light Rain
10:35 PM 57.2 °F 53.6 °F 88% 29.77 in 3.0 mi West 13.8 mph 33.4 mph N/A   Overcast
10:55 PM 57.2 °F 53.6 °F 88% 29.77 in 10.0 mi WSW 9.2 mph 17.3 mph N/A   Overcast
10:56 PM 57.2 °F 53.6 °F 88% 29.78 in 10.0 mi WSW 10.4 mph 17.3 mph N/A   Overcast
11:15 PM 57.2 °F 53.6 °F 88% 29.78 in 10.0 mi West 9.2 mph 20.7 mph N/A   Scattered Clouds
11:20 PM 57.2 °F 53.6 °F 88% 29.78 in 10.0 mi West 8.1 mph 16.1 mph N/A   Scattered Clouds
11:38 PM 57.2 °F 53.6 °F 88% 29.78 in 10.0 mi West 8.1 mph - N/A   Scattered Clouds
11:56 PM 57.2 °F 53.6 °F 88% 29.78 in 10.0 mi WSW 9.2 mph - N/A   Mostly Cloudy